Tracking 17631 objects as of 5-May-2016
HD Live streaming from Space Station
objects crossing your sky now

MOZHAYETS

Track MOZHAYETS now!
10-day predictions
MOZHAYETS is classified as:


NORAD ID: 27560
Int'l Code: 2002-054B
Perigee: 680.2 km
Apogee: 736.7 km
Inclination: 98.1 °
Period: 98.8 minutes
Semi major axis: 7079 km
RCS: 1.03 m2 (large)
Launch date: November 28, 2002
Source: Commonwealth of Independent States (former USSR) (CIS)
Launch site: PLESETSK MISSILE AND SPACE COMPLEX (PKMTR)
Your satellite tracking list
Your tracking list is empty





NASA's NSSDC Master Catalog

Two Line Element Set (TLE):
1 27560U 02054B   16126.37469564  .00000331  00000-0  82445-4 0  9995
2 27560  98.1499 261.8788 0039873 300.3520  59.3745 14.57483586712593
Source of the keplerian elements: AFSPC

N2YO: 389